Total_Precipitation_Accumulation
0.24 0.26 0.29 0.28 0.27 0.27 0.31 0.42 0.57 0.41 0.11 0.03 0.05 0.08 0.12 0.15 0.21 0.27 0.27 0.32 0.37 0.41 0.49 0.56 0.57 0.59 0.71 1.03 1.73 2.56 3.18 3.26 2.93 2.42 2.10 2.17 2.38 2.75
0.27 0.31 0.33 0.33 0.32 0.31 0.33 0.35 0.47 0.57 0.35 0.07 0.06 0.09 0.14 0.16 0.21 0.25 0.24 0.30 0.34 0.38 0.39 0.42 0.49 0.56 0.63 0.75 1.02 1.67 2.42 3.01 3.21 3.05 2.73 2.57 2.65 2.92
0.32 0.36 0.35 0.36 0.40 0.40 0.40 0.40 0.40 0.48 0.47 0.13 0.05 0.08 0.16 0.22 0.22 0.23 0.23 0.24 0.27 0.34 0.37 0.36 0.39 0.45 0.53 0.61 0.73 1.06 1.70 2.35 2.91 3.23 3.31 3.14 3.02 2.98
0.43 0.43 0.42 0.42 0.44 0.45 0.49 0.48 0.43 0.41 0.48 0.30 0.09 0.08 0.14 0.23 0.26 0.26 0.24 0.23 0.23 0.29 0.33 0.37 0.38 0.42 0.46 0.53 0.61 0.72 1.08 1.63 2.21 2.73 3.06 3.08 3.00 3.13
0.49 0.53 0.53 0.53 0.53 0.52 0.55 0.57 0.53 0.46 0.46 0.44 0.23 0.13 0.17 0.23 0.29 0.30 0.28 0.27 0.26 0.29 0.31 0.36 0.41 0.45 0.45 0.48 0.53 0.60 0.70 0.96 1.38 2.02 2.63 2.87 2.85 2.85
0.53 0.57 0.62 0.66 0.68 0.68 0.73 0.71 0.67 0.63 0.54 0.49 0.36 0.26 0.25 0.27 0.34 0.35 0.32 0.31 0.34 0.35 0.34 0.33 0.38 0.43 0.45 0.43 0.40 0.44 0.57 0.82 1.12 1.49 2.02 2.43 2.56 2.56
0.55 0.59 0.63 0.72 0.86 1.01 1.11 1.02 0.87 0.83 0.74 0.66 0.53 0.40 0.36 0.39 0.46 0.43 0.42 0.36 0.39 0.44 0.41 0.34 0.32 0.32 0.36 0.43 0.47 0.48 0.50 0.60 0.79 1.10 1.52 1.98 2.29 2.34
0.51 0.49 0.50 0.57 0.67 0.79 0.95 0.96 0.90 0.99 1.02 0.90 0.76 0.64 0.50 0.45 0.53 0.60 0.62 0.58 0.50 0.46 0.46 0.44 0.40 0.39 0.37 0.37 0.46 0.49 0.52 0.58 0.65 0.82 1.15 1.51 1.90 2.21
0.36 0.37 0.37 0.41 0.48 0.48 0.57 0.61 0.66 0.75 0.89 0.99 1.00 0.82 0.67 0.59 0.68 0.77 0.78 0.73 0.56 0.53 0.57 0.64 0.60 0.54 0.49 0.49 0.55 0.50 0.51 0.56 0.64 0.74 0.87 1.14 1.50 1.88
0.30 0.34 0.34 0.36 0.41 0.51 0.56 0.50 0.45 0.47 0.63 0.81 1.00 0.94 0.83 0.82 0.93 1.04 1.04 1.00 0.86 0.74 0.72 0.82 0.80 0.74 0.69 0.63 0.60 0.52 0.49 0.49 0.53 0.64 0.79 0.95 1.17 1.49
0.26 0.33 0.36 0.33 0.39 0.51 0.57 0.51 0.39 0.37 0.41 0.59 0.77 0.86 0.89 0.97 1.12 1.29 1.31 1.29 1.26 1.16 1.01 0.96 0.94 0.89 0.87 0.84 0.75 0.65 0.56 0.49 0.46 0.52 0.66 0.82 1.03 1.26
0.20 0.28 0.42 0.44 0.42 0.44 0.49 0.49 0.46 0.38 0.31 0.30 0.34 0.45 0.58 0.72 0.95 1.21 1.31 1.31 1.31 1.37 1.26 1.12 1.11 1.04 1.08 0.99 0.81 0.67 0.59 0.57 0.51 0.48 0.53 0.66 0.86 1.06
0.26 0.30 0.37 0.41 0.37 0.38 0.41 0.44 0.48 0.39 0.30 0.28 0.26 0.28 0.37 0.52 0.71 0.99 1.22 1.29 1.28 1.29 1.21 1.15 1.22 1.15 1.06 1.02 0.87 0.73 0.62 0.54 0.46 0.46 0.49 0.57 0.73 0.87
0.31 0.26 0.30 0.33 0.30 0.31 0.31 0.35 0.34 0.33 0.35 0.31 0.26 0.24 0.28 0.40 0.53 0.71 0.97 1.10 1.13 1.14 1.08 1.10 1.18 1.06 0.96 0.88 0.86 0.83 0.73 0.64 0.52 0.43 0.39 0.53 0.66 0.80
0.35 0.39 0.32 0.26 0.23 0.20 0.20 0.24 0.25 0.27 0.34 0.31 0.23 0.19 0.21 0.31 0.39 0.50 0.68 0.88 0.97 1.00 1.03 1.05 1.12 1.08 1.01 0.89 0.76 0.75 0.79 0.81 0.68 0.55 0.46 0.43 0.47 0.59
0.30 0.33 0.31 0.21 0.16 0.13 0.11 0.13 0.17 0.23 0.27 0.26 0.19 0.15 0.16 0.23 0.32 0.43 0.57 0.74 0.90 0.95 0.99 1.04 1.17 1.28 1.22 0.96 0.82 0.78 0.72 0.80 0.78 0.64 0.53 0.47 0.45 0.46
0.37 0.33 0.28 0.23 0.19 0.15 0.12 0.10 0.11 0.16 0.22 0.22 0.20 0.19 0.19 0.22 0.27 0.35 0.50 0.63 0.78 0.84 0.93 1.09 1.21 1.32 1.44 1.35 1.17 0.95 0.78 0.70 0.71 0.67 0.60 0.55 0.55 0.52
0.37 0.33 0.24 0.19 0.15 0.14 0.13 0.11 0.10 0.12 0.14 0.17 0.20 0.19 0.20 0.22 0.26 0.30 0.41 0.54 0.66 0.71 0.81 0.98 1.16 1.32 1.54 1.73 1.53 1.15 0.89 0.77 0.76 0.74 0.65 0.59 0.61 0.63
0.29 0.22 0.16 0.14 0.13 0.12 0.11 0.11 0.10 0.08 0.10 0.15 0.17 0.17 0.18 0.21 0.25 0.29 0.35 0.44 0.54 0.62 0.73 0.87 1.04 1.19 1.29 1.46 1.64 1.39 1.06 0.89 0.84 0.87 0.81 0.63 0.57 0.60
0.19 0.16 0.15 0.13 0.12 0.12 0.12 0.11 0.10 0.10 0.12 0.13 0.14 0.15 0.17 0.20 0.23 0.25 0.30 0.39 0.48 0.56 0.65 0.78 0.95 1.10 1.16 1.11 1.23 1.37 1.34 1.07 0.89 0.90 0.92 0.82 0.74 0.79
0.14 0.13 0.13 0.14 0.13 0.12 0.11 0.11 0.11 0.11 0.10 0.11 0.12 0.13 0.15 0.19 0.21 0.21 0.25 0.32 0.43 0.52 0.58 0.64 0.79 0.96 1.16 1.20 1.18 1.17 1.28 1.36 1.12 0.92 0.89 0.90 0.93 0.94
0.13 0.13 0.13 0.13 0.14 0.14 0.13 0.12 0.12 0.11 0.10 0.11 0.11 0.11 0.13 0.16 0.19 0.20 0.24 0.30 0.37 0.44 0.52 0.57 0.65 0.85 1.14 1.31 1.28 1.17 1.18 1.34 1.47 1.31 1.06 0.88 0.85 0.87
0.16 0.16 0.15 0.14 0.15 0.15 0.14 0.13 0.12 0.10 0.09 0.10 0.10 0.10 0.12 0.14 0.15 0.19 0.23 0.27 0.33 0.39 0.47 0.55 0.63 0.78 1.05 1.23 1.31 1.27 1.18 1.19 1.25 1.32 1.40 1.19 0.88 0.76